Regional Weather Roundup
Issued by NWS

Home | Current Version | Previous Version | Text Only | Print | Product List | Glossary On
Versions: 1 2 3 4 5 6 7 8 9 10 11 12 13 14 15 16 17 18 19 20 21 22 23 24 25 26 27 28
000
ASUS45 KREV 250210
RWRNV
NEVADA REGIONAL WEATHER ROUNDUP
NATIONAL WEATHER SERVICE RENO NV
700 PM PDT SAT JUN 24 2017

NOTE: "FAIR" INDICATES FEW OR NO CLOUDS BELOW 12,000 FEET WITH NO
SIGNIFICANT WEATHER AND/OR OBSTRUCTIONS TO VISIBILITY.

NVZ001-003-004-250300-
WESTERN NEVADA

CITY           SKY/WX    TMP DP  RH WIND       PRES   REMARKS
RENO           MOSUNNY   96  29   9 NE5       30.07S
CARSON CITY    FAIR      91  27   9 N6        30.10R
MINDEN         FAIR      86  46  25 W6        30.10S
FALLON         SUNNY     96  18   6 N8        30.03S
LOVELOCK       SUNNY     96  24   7 NE13      30.03S
HAWTHORNE      SUNNY     93  28  10 NW15      30.04R
$$

NVZ002-CAZ072-073-250300-
NORTHERN AND CENTRAL SIERRA

CITY           SKY/WX    TMP DP  RH WIND       PRES   REMARKS
S. LAKE TAHOE  PTSUNNY   80  47  31 SW9G17    30.25
TRUCKEE        MOSUNNY   81  54  39 SW6       30.23R
SQUAW VLY 8000   N/A     64  50  59 W6          N/A
SUSANVILLE     SUNNY     95  32  11 E3        30.06F
MAMMOTH LAKES  FAIR      71  36  27 W12       30.37S
BRIDGEPORT     FAIR      65  43  44 MISG      30.33F
$$

NVZ030-031-036-250300-
NORTHERN NEVADA

CITY           SKY/WX    TMP DP  RH WIND       PRES   REMARKS
ELKO           SUNNY     89  19   7 NW8       30.15S
WINNEMUCCA     SUNNY     92  25   9 NE9       30.10S
WENDOVER         N/A     87  24  10 E7        30.12S
$$

NVZ035-037-250300-
CENTRAL NEVADA

CITY           SKY/WX    TMP DP  RH WIND       PRES   REMARKS
ELY            SUNNY     87  33  14 N9        30.20S
EUREKA           N/A     87  27  11 N10       30.20S
$$

NVZ013-014-250300-
SOUTH CENTRAL NEVADA

CITY           SKY/WX    TMP DP  RH WIND       PRES   REMARKS
TONOPAH        MOSUNNY   95  22   7 N10G16    30.09S
$$

NVZ017-020-022-250300-
SOUTHERN NEVADA

CITY           SKY/WX    TMP DP  RH WIND       PRES   REMARKS
LAS VEGAS      MOSUNNY  111  10   3 VRB5      29.76S
N. LAS VEGAS   MOSUNNY  109  19   4 SW6       29.75F
NELLIS AFB     NOT AVBL
HENDERSON      SUNNY    108  31   7 CALM      29.81S
MERCURY        MOSUNNY  105  24   6 SW8       29.86S
$$




USA.gov is the U.S. government's official web portal to all federal, state and local government web resources and services.